Wind_Speed
2 2 2 2 2 3 3 4 5 5 4 3 2 2 2 3 4 4 5 6 7 7 7 7 8 7 7 7 7 7 7 6 6 5 5 5 4 4 3 3 2 2 2
2 3 3 3 3 4 4 5 6 6 5 4 3 2 1 1 2 3 4 5 5 6 6 6 7 7 6 6 6 6 6 6 6 5 5 4 4 4 3 2 2 1 1
3 4 4 4 4 5 6 6 7 7 6 5 4 3 2 1 1 1 2 2 3 4 4 4 5 5 5 5 5 5 6 5 5 5 4 4 4 3 2 2 1 1 1
5 5 5 5 6 6 7 8 8 8 7 7 6 5 4 3 2 1 0 1 1 2 3 3 4 4 4 4 4 4 5 5 4 4 4 3 3 3 2 1 0 0 1
7 6 6 7 8 9 9 9 9 10 9 8 8 7 6 5 4 3 3 2 2 2 2 3 4 4 4 3 4 4 4 4 4 3 3 3 2 2 2 1 1 1 1
8 7 7 7 9 10 11 10 10 11 11 10 10 9 8 7 6 5 5 4 4 3 3 4 4 4 4 4 4 4 4 4 4 3 3 3 3 3 2 2 2 2 2
9 9 9 9 10 10 11 11 11 12 12 12 12 11 10 9 8 8 7 6 6 6 6 6 6 6 6 6 5 5 6 5 5 4 4 4 4 4 4 3 3 3 3
11 12 12 12 12 13 13 14 13 13 13 14 14 13 12 11 10 10 9 9 8 8 8 8 8 8 8 7 7 7 7 7 7 6 6 6 5 5 5 4 4 4 4
13 13 13 14 14 15 15 15 16 16 15 16 16 15 14 13 13 12 11 11 10 10 10 10 10 10 9 9 9 9 9 9 9 8 8 7 7 7 7 6 6 6 6
14 14 14 14 15 16 16 17 18 18 18 18 18 17 16 16 15 14 13 13 12 12 12 12 12 11 11 10 10 10 10 10 10 10 10 9 9 9 8 8 8 8 7
14 14 14 15 15 16 17 17 19 19 19 19 19 18 18 18 17 17 16 15 15 14 14 14 13 13 13 12 12 12 12 12 12 12 12 11 11 11 10 10 9 9 9
15 14 14 15 15 17 17 17 19 20 21 20 20 20 20 20 19 18 17 17 16 16 16 15 15 14 14 14 14 13 14 14 14 14 14 14 13 13 12 12 11 11 11
15 14 14 15 16 17 17 19 19 20 21 22 21 21 21 21 20 19 19 18 18 18 17 17 16 16 16 16 15 15 15 15 15 15 16 16 15 15 14 14 14 13 13
15 15 15 15 16 18 18 19 19 20 22 23 23 23 22 22 21 21 20 20 20 19 19 18 18 18 17 17 17 16 16 16 17 16 17 18 18 17 16 16 16 15 15
16 16 16 16 18 19 19 19 19 21 21 22 23 23 23 23 23 22 22 22 21 21 20 20 20 20 18 18 18 18 18 18 18 18 18 18 19 19 19 18 18 17 17
16 17 17 17 16 17 18 18 20 21 21 23 25 25 25 24 24 24 23 23 22 21 22 21 21 22 21 21 20 20 20 20 20 20 20 19 19 19 19 20 20 20 19
17 17 17 17 17 17 17 18 19 21 22 24 25 25 25 25 25 25 25 24 23 23 23 23 23 23 23 22 21 21 21 21 21 22 22 22 21 20 20 21 22 22 21
18 18 17 16 17 17 18 19 21 23 24 25 25 26 26 26 26 26 26 25 25 24 24 24 24 24 25 24 23 23 22 23 23 23 23 24 23 22 22 22 23 24 24
18 18 18 18 18 18 19 20 21 23 24 25 25 26 27 28 28 27 27 26 26 25 25 25 25 25 25 25 25 25 25 24 24 24 24 24 23 23 24 24 24 24 25
19 19 19 19 20 20 20 21 22 22 22 22 24 26 27 28 29 28 28 27 26 26 27 26 26 26 26 25 25 25 26 26 25 24 24 25 25 24 25 25 25 25 25
19 19 20 21 20 21 21 21 21 21 22 22 23 25 25 27 28 28 28 27 27 27 27 27 27 26 26 27 26 26 26 27 27 26 26 27 26 26 26 26 26 26 25
19 19 20 20 20 20 20 20 20 20 21 22 23 23 25 26 27 27 27 26 25 26 26 27 27 26 27 27 27 27 27 27 27 27 27 27 27 27 26 26 27 27 27
19 20 21 20 20 20 20 19 19 19 21 22 22 23 24 25 26 26 27 27 26 26 26 26 27 27 27 27 27 27 27 28 28 28 28 28 28 28 28 28 28 29 29
21 21 21 21 21 20 20 20 20 20 21 22 23 23 23 24 26 26 26 26 26 27 27 27 28 27 27 28 28 28 28 29 28 28 28 29 29 30 30 29 30 30 31
22 22 21 21 21 20 20 20 21 21 21 22 22 22 23 23 24 25 25 26 26 27 28 28 28 27 27 28 28 28 28 28 28 29 29 30 31 31 31 31 31 31 31
21 21 22 22 21 21 21 21 21 21 22 23 23 23 23 24 24 25 25 26 27 27 27 28 28 28 27 27 28 28 28 28 29 30 30 31 31 31 31 31 32 32 31
Wind_Direction
224 203 184 186 203 218 230 234 231 224 218 207 175 139 109 87 73 68 63 62 57 53 48 44 43 42 41 40 40 39 38 41 43 44 46 48 52 56 60 54 57 68 86
237 223 217 216 224 229 233 236 235 229 226 218 208 197 153 107 89 77 64 61 59 54 48 43 39 39 36 36 36 35 34 35 36 36 38 39 44 49 52 45 45 68 96
247 243 239 232 231 234 237 238 237 235 232 226 224 227 219 190 128 80 67 55 55 49 43 36 29 30 30 28 28 26 26 27 27 26 29 30 34 37 38 37 35 70 153
262 259 247 242 240 238 239 239 240 239 239 235 233 233 230 224 227 235 267 3 24 23 18 14 11 11 14 14 14 12 12 13 13 14 13 14 19 22 20 7 8 154 192
271 268 259 255 247 242 241 240 240 241 241 239 241 240 237 234 234 237 243 254 279 307 326 339 344 344 348 349 350 349 347 346 353 360 352 349 342 340 336 313 259 228 218
275 272 269 264 251 247 244 242 243 243 241 240 243 243 239 237 239 237 240 246 257 271 286 304 315 323 321 322 320 317 317 318 322 328 332 320 306 297 287 276 241 231 224
277 279 278 270 256 250 250 248 245 243 242 242 243 243 240 238 239 237 240 246 255 264 271 281 291 298 302 301 298 295 295 296 299 294 295 291 283 278 273 263 241 229 222
283 285 278 271 261 255 254 247 244 241 241 242 242 242 242 240 239 239 241 245 251 259 265 271 277 283 286 287 285 284 285 283 283 278 277 279 277 268 268 264 248 233 224
289 288 278 271 265 259 256 250 245 241 239 240 241 241 242 242 242 243 243 246 250 255 259 263 269 275 277 278 279 277 277 277 277 275 272 275 274 268 261 260 255 240 231
288 286 278 271 266 260 254 251 247 242 241 239 239 240 242 243 243 244 247 249 251 254 257 261 265 269 271 272 273 274 273 273 272 272 270 271 270 267 259 256 254 247 238
288 283 276 270 264 257 253 251 247 243 242 239 238 241 243 244 244 245 248 251 252 254 257 261 264 266 267 268 270 271 273 272 270 271 269 268 267 267 261 258 255 250 245
285 279 273 270 263 256 250 247 246 244 242 238 238 242 245 246 246 247 248 252 255 256 257 260 264 265 267 268 270 272 273 272 272 270 267 265 264 263 261 260 257 254 251
279 272 270 266 262 255 250 247 248 249 241 240 242 244 246 248 250 250 250 254 257 258 260 261 264 267 269 269 270 272 273 272 273 272 269 266 264 262 261 261 259 257 253
275 270 266 262 258 255 252 249 246 246 244 242 243 244 247 249 250 251 251 255 258 260 261 263 266 269 270 269 269 269 268 271 273 273 272 269 264 261 260 262 262 260 258
274 270 265 266 261 257 253 248 247 248 246 245 243 244 248 250 252 253 254 258 260 260 261 262 264 266 268 270 270 268 267 270 273 273 273 271 267 261 260 261 261 261 261
270 270 269 268 266 258 253 252 249 251 249 248 245 244 246 250 253 255 256 257 259 260 260 262 264 265 267 269 270 270 268 268 270 272 271 271 268 263 261 260 260 259 260
271 272 271 269 268 264 257 253 252 254 253 250 246 245 248 252 254 255 256 257 259 260 261 262 263 262 264 267 269 270 271 270 269 271 271 268 266 263 261 260 260 260 260
274 274 272 270 269 267 261 256 256 258 253 248 247 248 250 252 253 255 257 258 259 261 262 263 264 263 264 266 268 270 271 271 271 271 270 268 265 263 262 262 262 262 262
277 275 276 272 271 269 264 259 259 258 252 249 250 252 251 252 253 254 256 257 258 259 262 265 266 265 266 268 269 268 268 270 271 270 269 267 264 263 262 262 263 263 263
277 274 274 274 271 267 267 265 261 260 257 255 255 255 255 254 253 254 255 257 259 260 262 264 264 264 265 268 269 268 268 269 268 268 268 267 265 264 264 264 264 264 264
275 274 272 271 271 268 268 268 263 261 258 257 259 258 255 255 256 255 256 258 261 261 263 265 265 264 266 267 269 269 267 267 266 266 267 266 265 265 265 264 264 266 266
273 273 272 270 269 269 270 270 264 258 257 257 259 259 258 259 259 258 259 261 263 263 265 266 265 265 267 268 268 268 267 265 264 265 265 265 264 264 265 265 265 265 266
270 273 272 269 268 269 270 271 267 263 258 257 260 261 261 259 258 259 260 262 265 266 266 266 266 266 267 267 269 269 266 265 264 265 265 265 265 266 267 266 265 265 265
268 271 270 267 266 268 269 269 266 265 265 263 263 263 263 261 260 260 259 262 264 265 267 268 268 266 267 267 268 269 266 265 265 265 266 265 267 268 267 267 266 265 265
269 268 269 267 268 268 267 268 268 267 268 267 268 267 266 265 263 262 262 263 265 267 267 268 268 268 267 268 268 269 268 266 265 266 266 267 267 267 267 267 267 268 267
267 268 267 268 271 272 269 267 267 268 271 271 271 271 269 267 267 265 263 264 265 267 269 269 269 268 268 267 268 269 269 267 266 265 265 265 266 266 267 268 268 268 267
Height
5916 5916 5916 5916 5916 5916 5917 5918 5918 5918 5918 5918 5918 5918 5918 5918 5918 5918 5918 5917 5917 5917 5917 5917 5916 5916 5915 5915 5914 5913 5913 5912 5911 5911 5910 5909 5909 5908 5908 5907 5907 5906 5906
5915 5915 5915 5916 5916 5916 5916 5917 5917 5917 5917 5917 5917 5917 5917 5918 5918 5918 5918 5917 5917 5917 5917 5917 5916 5916 5916 5915 5915 5914 5913 5913 5912 5911 5910 5910 5909 5908 5908 5908 5907 5907 5906
5914 5914 5914 5915 5915 5915 5916 5916 5916 5916 5916 5916 5917 5917 5917 5917 5917 5917 5917 5917 5917 5917 5917 5916 5916 5916 5915 5915 5914 5914 5913 5913 5912 5911 5910 5910 5909 5909 5908 5908 5907 5907 5907
5912 5912 5912 5913 5914 5914 5915 5915 5915 5915 5915 5915 5916 5916 5916 5916 5916 5917 5917 5917 5916 5916 5916 5916 5915 5915 5915 5914 5914 5913 5913 5913 5912 5911 5911 5910 5909 5909 5908 5908 5908 5907 5907
5910 5910 5910 5911 5912 5912 5913 5913 5914 5914 5914 5914 5915 5915 5915 5915 5915 5915 5916 5916 5916 5915 5915 5915 5915 5914 5914 5914 5913 5913 5912 5912 5911 5911 5910 5910 5909 5909 5909 5908 5908 5908 5907
5908 5908 5908 5909 5909 5910 5911 5911 5911 5912 5912 5913 5913 5913 5913 5914 5914 5914 5914 5914 5914 5914 5914 5914 5914 5914 5913 5913 5912 5912 5912 5911 5911 5910 5910 5910 5909 5909 5908 5908 5908 5907 5907
5905 5905 5906 5906 5907 5908 5908 5908 5909 5909 5910 5910 5911 5911 5911 5912 5912 5912 5913 5913 5913 5913 5913 5913 5913 5912 5912 5912 5911 5911 5911 5910 5910 5909 5909 5909 5909 5908 5908 5908 5907 5907 5907
5903 5903 5903 5903 5904 5904 5905 5905 5906 5906 5907 5908 5908 5909 5909 5910 5910 5910 5911 5911 5911 5911 5911 5911 5911 5910 5910 5910 5910 5910 5909 5909 5909 5908 5908 5908 5908 5907 5907 5907 5906 5906 5906
5900 5899 5899 5900 5900 5900 5901 5902 5902 5903 5903 5904 5905 5906 5907 5907 5908 5908 5909 5909 5909 5909 5909 5909 5909 5908 5908 5908 5908 5908 5907 5907 5907 5907 5907 5906 5906 5906 5906 5906 5905 5905 5905
5897 5896 5896 5896 5896 5896 5897 5897 5898 5899 5900 5901 5901 5903 5904 5904 5905 5905 5906 5906 5906 5906 5906 5906 5906 5906 5906 5906 5906 5905 5905 5905 5905 5904 5904 5905 5904 5904 5904 5904 5904 5903 5903
5893 5893 5893 5893 5893 5892 5892 5893 5893 5895 5896 5896 5898 5899 5900 5901 5901 5902 5903 5903 5903 5903 5903 5903 5903 5903 5903 5903 5903 5903 5902 5902 5902 5902 5902 5902 5902 5902 5902 5901 5901 5901 5902
5890 5890 5889 5889 5888 5888 5888 5888 5889 5890 5891 5892 5893 5895 5896 5897 5898 5898 5899 5899 5900 5900 5900 5900 5900 5900 5900 5900 5900 5900 5900 5900 5900 5899 5899 5899 5899 5899 5899 5899 5899 5899 5899
5887 5886 5885 5885 5884 5884 5884 5884 5884 5885 5886 5887 5889 5890 5892 5893 5894 5895 5895 5895 5896 5896 5896 5896 5896 5896 5897 5897 5897 5897 5897 5897 5896 5896 5896 5896 5896 5896 5896 5896 5896 5896 5896
5883 5883 5882 5881 5881 5880 5880 5880 5880 5881 5882 5883 5884 5886 5887 5889 5890 5890 5891 5892 5892 5892 5893 5893 5893 5893 5893 5893 5893 5893 5893 5893 5893 5893 5893 5893 5892 5892 5893 5893 5893 5893 5893
5879 5879 5878 5877 5877 5876 5876 5876 5876 5876 5877 5878 5879 5881 5883 5884 5885 5886 5887 5887 5888 5888 5888 5888 5888 5888 5889 5889 5889 5889 5889 5889 5889 5889 5889 5889 5889 5889 5889 5889 5889 5889 5890
5875 5875 5874 5873 5872 5872 5871 5872 5873 5872 5873 5874 5875 5876 5878 5879 5880 5881 5881 5882 5883 5883 5884 5884 5884 5884 5884 5884 5885 5885 5885 5885 5885 5885 5885 5884 5884 5884 5885 5885 5885 5885 5885
5871 5871 5870 5869 5868 5868 5867 5867 5868 5868 5868 5869 5870 5871 5873 5874 5875 5875 5876 5877 5877 5878 5878 5879 5879 5879 5880 5880 5880 5880 5880 5880 5880 5880 5880 5880 5880 5880 5880 5880 5881 5881 5881
5867 5867 5866 5865 5864 5864 5863 5863 5863 5863 5863 5864 5865 5867 5868 5869 5870 5870 5871 5871 5872 5873 5873 5873 5874 5874 5874 5874 5875 5875 5875 5875 5875 5875 5875 5875 5875 5875 5875 5876 5876 5876 5876
5863 5863 5862 5861 5860 5859 5859 5858 5858 5857 5857 5859 5861 5862 5862 5863 5864 5865 5865 5866 5866 5867 5867 5868 5868 5868 5869 5869 5869 5869 5870 5870 5870 5869 5869 5870 5870 5870 5870 5870 5871 5871 5871
5859 5859 5858 5857 5856 5855 5855 5854 5853 5853 5853 5854 5855 5856 5857 5858 5859 5859 5860 5860 5860 5861 5862 5862 5862 5863 5863 5863 5863 5864 5864 5864 5864 5864 5864 5864 5865 5865 5865 5865 5865 5865 5865
5855 5854 5854 5853 5852 5851 5850 5850 5849 5849 5849 5849 5850 5850 5851 5852 5853 5854 5854 5855 5855 5855 5856 5856 5856 5856 5857 5857 5858 5858 5858 5858 5858 5858 5858 5859 5859 5859 5859 5859 5859 5859 5859
5850 5850 5849 5848 5847 5846 5846 5845 5844 5844 5844 5844 5845 5845 5845 5846 5847 5848 5848 5849 5849 5850 5850 5850 5850 5851 5851 5851 5851 5851 5852 5852 5852 5852 5852 5853 5853 5853 5853 5853 5853 5854 5854
5846 5846 5844 5843 5843 5842 5841 5840 5840 5839 5839 5839 5840 5840 5840 5840 5841 5842 5843 5843 5843 5844 5844 5844 5844 5844 5845 5845 5845 5845 5846 5846 5846 5846 5846 5846 5846 5847 5847 5847 5847 5848 5848
5841 5841 5839 5839 5838 5837 5836 5835 5835 5835 5834 5834 5834 5834 5834 5835 5836 5836 5836 5837 5837 5838 5838 5838 5838 5838 5838 5838 5839 5839 5839 5839 5840 5840 5840 5840 5840 5840 5840 5841 5841 5841 5841
5836 5835 5835 5834 5833 5832 5831 5831 5830 5830 5829 5829 5829 5829 5829 5829 5829 5830 5830 5831 5831 5832 5832 5832 5832 5831 5832 5832 5832 5832 5832 5832 5833 5833 5834 5834 5833 5833 5833 5834 5834 5834 5834
5831 5830 5830 5829 5828 5827 5827 5826 5825 5825 5825 5824 5824 5823 5823 5823 5824 5824 5824 5825 5825 5825 5825 5825 5825 5825 5825 5825 5825 5825 5825 5826 5826 5826 5826 5826 5826 5826 5826 5827 5827 5827 5827